LNE1415 SEGU-SEGS

Flight info

Callsign LNE1415
Flight time 1h 46m
Altitude 34000
Route ASOSI3A ASOSI UW17 SCV
Aircraft A319/M-SDE3FGHIRWY/LB1

Departure

Time 2026-04-29 10:55
Airport José Joaquín de Olmedo International Airport (SEGU)

Arrival

Time 2026-04-29 12:42
Airport Seymour Galapagos Ecological Airport (SEGS)
Time Latitude Longitude Altitude Speed Heading
2026-04-29 10:19 -2.15023 -79.88416 22 ft 0 kts 299°
2026-04-29 10:47 -2.15031 -79.88402 22 ft 4 kts 296°
2026-04-29 10:48 -2.15041 -79.88377 24 ft 4 kts 282°
2026-04-29 10:48 -2.15042 -79.88352 24 ft 4 kts 244°
2026-04-29 10:48 -2.15033 -79.88341 26 ft 1 kts 210°
2026-04-29 10:48 -2.15031 -79.88340 25 ft 0 kts 210°
2026-04-29 10:50 -2.15079 -79.88367 22 ft 15 kts 209°
2026-04-29 10:51 -2.15183 -79.88362 22 ft 22 kts 124°
2026-04-29 10:51 -2.15182 -79.88236 22 ft 18 kts 30°
2026-04-29 10:51 -2.15045 -79.88156 22 ft 25 kts 30°
2026-04-29 10:51 -2.14890 -79.88066 22 ft 26 kts 30°
2026-04-29 10:52 -2.14730 -79.87974 24 ft 23 kts 30°
2026-04-29 10:52 -2.14649 -79.87882 21 ft 11 kts 73°
2026-04-29 10:52 -2.14647 -79.87874 21 ft 0 kts 75°
2026-04-29 10:52 -2.14646 -79.87870 21 ft 0 kts 75°
2026-04-29 10:53 -2.14643 -79.87862 23 ft 3 kts 75°
2026-04-29 10:53 -2.14634 -79.87815 22 ft 11 kts 82°
2026-04-29 10:53 -2.14679 -79.87756 21 ft 13 kts 192°
2026-04-29 10:53 -2.14743 -79.87789 21 ft 0 kts 210°
2026-04-29 10:54 -2.14874 -79.87865 23 ft 53 kts 210°
2026-04-29 10:55 -2.15359 -79.88145 21 ft 108 kts 210°
2026-04-29 10:55 -2.16154 -79.88607 27 ft 156 kts 210°
2026-04-29 10:55 -2.17092 -79.89161 593 ft 153 kts 212°
2026-04-29 10:55 -2.18009 -79.89703 1137 ft 154 kts 211°
2026-04-29 10:56 -2.18970 -79.90266 1489 ft 169 kts 211°
2026-04-29 10:56 -2.20043 -79.90888 1797 ft 189 kts 210°
2026-04-29 10:56 -2.21266 -79.91562 2063 ft 214 kts 211°
2026-04-29 10:56 -2.22356 -79.92659 2403 ft 238 kts 246°
2026-04-29 10:57 -2.22652 -79.94345 2845 ft 259 kts 271°
2026-04-29 10:57 -2.22485 -79.96183 3648 ft 267 kts 278°
2026-04-29 10:57 -2.22201 -79.98034 4530 ft 272 kts 279°
2026-04-29 10:57 -2.21920 -79.99920 5372 ft 277 kts 278°
2026-04-29 10:58 -2.21758 -80.01190 5918 ft 280 kts 277°
2026-04-29 10:58 -2.21550 -80.03137 6723 ft 284 kts 276°
2026-04-29 10:58 -2.21382 -80.05121 7486 ft 288 kts 275°
2026-04-29 10:58 -2.21240 -80.07130 8267 ft 292 kts 274°
2026-04-29 10:59 -2.21113 -80.09167 9058 ft 295 kts 274°
2026-04-29 10:59 -2.20989 -80.11228 9810 ft 299 kts 274°
2026-04-29 10:59 -2.20863 -80.13357 10164 ft 318 kts 274°
2026-04-29 10:59 -2.20729 -80.15639 10355 ft 339 kts 274°
2026-04-29 11:00 -2.20587 -80.18023 10841 ft 347 kts 274°
2026-04-29 11:00 -2.20439 -80.20448 11422 ft 352 kts 274°
2026-04-29 11:00 -2.20289 -80.22905 12029 ft 356 kts 274°
2026-04-29 11:00 -2.20137 -80.25385 12631 ft 359 kts 274°
2026-04-29 11:01 -2.19984 -80.27888 13219 ft 363 kts 274°
2026-04-29 11:01 -2.19830 -80.30417 13782 ft 366 kts 274°
2026-04-29 11:01 -2.19675 -80.32974 14290 ft 370 kts 274°
2026-04-29 11:01 -2.19517 -80.35551 14795 ft 373 kts 274°
2026-04-29 11:02 -2.19359 -80.38148 15297 ft 376 kts 274°
2026-04-29 11:02 -2.19202 -80.40765 15797 ft 379 kts 274°
2026-04-29 11:02 -2.19044 -80.43402 16293 ft 382 kts 274°
2026-04-29 11:02 -2.18881 -80.46065 16789 ft 385 kts 274°
2026-04-29 11:03 -2.18717 -80.48742 17284 ft 388 kts 274°
2026-04-29 11:03 -2.18550 -80.51451 17780 ft 391 kts 274°
2026-04-29 11:03 -2.18532 -80.54181 18241 ft 395 kts 266°
2026-04-29 11:03 -2.18765 -80.56923 18668 ft 398 kts 265°
2026-04-29 11:04 -2.19002 -80.59690 19108 ft 400 kts 265°
2026-04-29 11:04 -2.19238 -80.62468 19549 ft 402 kts 265°
2026-04-29 11:04 -2.19475 -80.65265 19995 ft 405 kts 265°
2026-04-29 11:04 -2.19712 -80.68080 20443 ft 407 kts 265°
2026-04-29 11:05 -2.19951 -80.70906 20879 ft 410 kts 265°
2026-04-29 11:05 -2.20193 -80.73754 21294 ft 412 kts 265°
2026-04-29 11:05 -2.20434 -80.76604 21703 ft 415 kts 265°
2026-04-29 11:05 -2.20681 -80.79490 22126 ft 418 kts 265°
2026-04-29 11:06 -2.20928 -80.82389 22546 ft 420 kts 265°
2026-04-29 11:06 -2.21177 -80.85302 22945 ft 422 kts 265°
2026-04-29 11:06 -2.21428 -80.88238 23328 ft 425 kts 264°
2026-04-29 11:06 -2.21678 -80.91188 23675 ft 427 kts 264°
2026-04-29 11:07 -2.21928 -80.94133 24006 ft 428 kts 264°
2026-04-29 11:07 -2.22005 -80.97353 24342 ft 431 kts 274°
2026-04-29 11:07 -2.21618 -81.00060 24620 ft 434 kts 281°
2026-04-29 11:07 -2.21040 -81.03031 24929 ft 436 kts 280°
2026-04-29 11:08 -2.20471 -81.06007 25258 ft 436 kts 280°
2026-04-29 11:08 -2.19908 -81.09000 25576 ft 438 kts 280°
2026-04-29 11:08 -2.19346 -81.11991 25910 ft 438 kts 280°
2026-04-29 11:08 -2.18780 -81.14993 26194 ft 441 kts 280°
2026-04-29 11:09 -2.18209 -81.18007 26491 ft 442 kts 280°
2026-04-29 11:09 -2.17633 -81.21038 26772 ft 444 kts 281°
2026-04-29 11:09 -2.17058 -81.24078 27081 ft 445 kts 281°
2026-04-29 11:09 -2.16481 -81.27145 27378 ft 447 kts 281°
2026-04-29 11:10 -2.15906 -81.30199 27670 ft 448 kts 280°
2026-04-29 11:10 -2.15334 -81.33225 27953 ft 449 kts 280°
2026-04-29 11:10 -2.14752 -81.36297 28239 ft 451 kts 280°
2026-04-29 11:10 -2.14167 -81.39380 28513 ft 452 kts 280°
2026-04-29 11:11 -2.13581 -81.42472 28796 ft 454 kts 280°
2026-04-29 11:11 -2.12990 -81.45579 29067 ft 455 kts 280°
2026-04-29 11:11 -2.12399 -81.48689 29336 ft 457 kts 280°
2026-04-29 11:11 -2.11809 -81.51811 29597 ft 458 kts 280°
2026-04-29 11:12 -2.11216 -81.54951 29859 ft 460 kts 280°
2026-04-29 11:12 -2.10621 -81.58079 30089 ft 461 kts 280°
2026-04-29 11:12 -2.10020 -81.61234 30304 ft 462 kts 279°
2026-04-29 11:12 -2.09419 -81.64395 30508 ft 464 kts 279°
2026-04-29 11:13 -2.08816 -81.67570 30722 ft 465 kts 278°
2026-04-29 11:13 -2.08213 -81.70753 30931 ft 467 kts 278°
2026-04-29 11:13 -2.07606 -81.73945 31138 ft 468 kts 278°
2026-04-29 11:13 -2.06998 -81.77143 31332 ft 469 kts 278°
2026-04-29 11:14 -2.06391 -81.80348 31625 ft 468 kts 278°
2026-04-29 11:14 -2.05786 -81.83539 31936 ft 467 kts 277°
2026-04-29 11:14 -2.05180 -81.86733 32254 ft 466 kts 277°
2026-04-29 11:14 -2.04631 -81.89921 32564 ft 465 kts 275°
2026-04-29 11:15 -2.04172 -81.93110 32896 ft 463 kts 274°
2026-04-29 11:15 -2.03772 -81.96296 33241 ft 461 kts 272°
2026-04-29 11:15 -2.03398 -81.99480 33588 ft 460 kts 272°
2026-04-29 11:15 -2.03021 -82.02654 33856 ft 460 kts 272°
2026-04-29 11:16 -2.02629 -82.05809 33896 ft 454 kts 272°
2026-04-29 11:16 -2.01806 -82.11981 33901 ft 449 kts 273°
2026-04-29 11:17 -2.00954 -82.18164 33898 ft 449 kts 273°
2026-04-29 11:17 -2.00112 -82.24354 33898 ft 448 kts 272°
2026-04-29 11:18 -1.99285 -82.30564 33901 ft 448 kts 272°
2026-04-29 11:18 -1.98463 -82.36692 33902 ft 448 kts 272°
2026-04-29 11:19 -1.97630 -82.42872 33900 ft 448 kts 271°
2026-04-29 11:19 -1.96798 -82.49045 33908 ft 447 kts 271°
2026-04-29 11:20 -1.95978 -82.55161 33907 ft 447 kts 271°
2026-04-29 11:20 -1.95157 -82.61316 33908 ft 447 kts 271°
2026-04-29 11:21 -1.94336 -82.67469 33913 ft 446 kts 271°
2026-04-29 11:21 -1.93513 -82.73624 33912 ft 446 kts 271°
2026-04-29 11:22 -1.92690 -82.79795 33906 ft 446 kts 271°
2026-04-29 11:22 -1.91859 -82.85983 33892 ft 447 kts 271°
2026-04-29 11:23 -1.91035 -82.92111 33892 ft 448 kts 271°
2026-04-29 11:23 -1.90208 -82.98241 33892 ft 448 kts 271°
2026-04-29 11:24 -1.89384 -83.04416 33890 ft 448 kts 271°
2026-04-29 11:24 -1.88563 -83.10594 33893 ft 448 kts 271°
2026-04-29 11:25 -1.87732 -83.16770 33898 ft 448 kts 271°
2026-04-29 11:25 -1.86882 -83.23175 33893 ft 449 kts 271°
2026-04-29 11:26 -1.85669 -83.32258 33896 ft 449 kts 271°
2026-04-29 11:26 -1.84841 -83.38454 33895 ft 449 kts 271°
2026-04-29 11:27 -1.84008 -83.44647 33897 ft 450 kts 272°
2026-04-29 11:27 -1.83179 -83.50800 33898 ft 450 kts 271°
2026-04-29 11:28 -1.82346 -83.56998 33896 ft 450 kts 272°
2026-04-29 11:28 -1.81520 -83.63193 33897 ft 450 kts 272°
2026-04-29 11:29 -1.80690 -83.69394 33898 ft 450 kts 272°
2026-04-29 11:29 -1.79863 -83.75588 33899 ft 450 kts 272°
2026-04-29 11:30 -1.79034 -83.81787 33901 ft 450 kts 272°
2026-04-29 11:30 -1.78177 -83.88116 33901 ft 450 kts 272°
2026-04-29 11:31 -1.77356 -83.94173 33901 ft 450 kts 272°
2026-04-29 11:31 -1.76521 -84.00370 33904 ft 449 kts 272°
2026-04-29 11:32 -1.75698 -84.06556 33901 ft 449 kts 272°
2026-04-29 11:32 -1.74868 -84.12742 33902 ft 449 kts 272°
2026-04-29 11:33 -1.74028 -84.18924 33900 ft 448 kts 272°
2026-04-29 11:33 -1.73207 -84.25100 33896 ft 448 kts 272°
2026-04-29 11:34 -1.72384 -84.31274 33894 ft 448 kts 272°
2026-04-29 11:34 -1.71557 -84.37453 33896 ft 448 kts 272°
2026-04-29 11:35 -1.70728 -84.43595 33899 ft 448 kts 272°
2026-04-29 11:35 -1.69898 -84.49769 33898 ft 448 kts 272°
2026-04-29 11:36 -1.69067 -84.55943 33895 ft 448 kts 272°
2026-04-29 11:36 -1.68242 -84.62116 33895 ft 448 kts 272°
2026-04-29 11:37 -1.67416 -84.68305 33897 ft 448 kts 272°
2026-04-29 11:37 -1.66587 -84.74471 33900 ft 447 kts 273°
2026-04-29 11:38 -1.65761 -84.80597 33896 ft 447 kts 272°
2026-04-29 11:38 -1.64932 -84.86757 33896 ft 447 kts 272°
2026-04-29 11:39 -1.64101 -84.92913 33899 ft 447 kts 273°
2026-04-29 11:39 -1.63275 -84.99076 33897 ft 447 kts 272°
2026-04-29 11:40 -1.62442 -85.05230 33900 ft 447 kts 273°
2026-04-29 11:40 -1.61606 -85.11379 33905 ft 446 kts 273°
2026-04-29 11:41 -1.60779 -85.17521 33902 ft 445 kts 273°
2026-04-29 11:41 -1.59967 -85.23661 33902 ft 445 kts 273°
2026-04-29 11:42 -1.59150 -85.29792 33904 ft 445 kts 273°
2026-04-29 11:42 -1.58323 -85.35918 33898 ft 445 kts 273°
2026-04-29 11:43 -1.57508 -85.42003 33895 ft 445 kts 273°
2026-04-29 11:43 -1.56694 -85.48129 33897 ft 444 kts 274°
2026-04-29 11:44 -1.55877 -85.54252 33899 ft 444 kts 274°
2026-04-29 11:44 -1.55057 -85.60370 33896 ft 444 kts 274°
2026-04-29 11:45 -1.54235 -85.66484 33895 ft 444 kts 274°
2026-04-29 11:45 -1.53414 -85.72599 33893 ft 444 kts 274°
2026-04-29 11:46 -1.52594 -85.78715 33892 ft 444 kts 274°
2026-04-29 11:46 -1.51774 -85.84825 33891 ft 444 kts 274°
2026-04-29 11:47 -1.50954 -85.90937 33885 ft 444 kts 274°
2026-04-29 11:47 -1.50276 -85.96017 33885 ft 444 kts 274°
2026-04-29 11:48 -1.49458 -86.02132 33888 ft 444 kts 274°
2026-04-29 11:48 -1.48633 -86.08243 33887 ft 444 kts 274°
2026-04-29 11:49 -1.47814 -86.14350 33884 ft 444 kts 274°
2026-04-29 11:49 -1.46994 -86.20464 33888 ft 444 kts 274°
2026-04-29 11:50 -1.46176 -86.26563 33894 ft 443 kts 274°
2026-04-29 11:50 -1.45356 -86.32670 33893 ft 443 kts 274°
2026-04-29 11:51 -1.44533 -86.38767 33890 ft 443 kts 274°
2026-04-29 11:51 -1.43716 -86.44866 33890 ft 442 kts 274°
2026-04-29 11:52 -1.42906 -86.50963 33889 ft 442 kts 274°
2026-04-29 11:52 -1.42099 -86.57023 33889 ft 442 kts 274°
2026-04-29 11:53 -1.41291 -86.63112 33899 ft 441 kts 275°
2026-04-29 11:53 -1.40470 -86.69188 33901 ft 441 kts 275°
2026-04-29 11:54 -1.39649 -86.75264 33897 ft 440 kts 275°
2026-04-29 11:54 -1.38837 -86.81304 33893 ft 440 kts 275°
2026-04-29 11:55 -1.38028 -86.87361 33896 ft 440 kts 275°
2026-04-29 11:55 -1.37221 -86.93373 33894 ft 440 kts 275°
2026-04-29 11:56 -1.36415 -86.99370 33897 ft 439 kts 275°
2026-04-29 11:56 -1.35611 -87.05394 33900 ft 438 kts 275°
2026-04-29 11:57 -1.34808 -87.11403 33898 ft 438 kts 275°
2026-04-29 11:57 -1.33994 -87.17435 33898 ft 438 kts 275°
2026-04-29 11:58 -1.33191 -87.23424 33893 ft 437 kts 275°
2026-04-29 11:58 -1.32392 -87.29408 33890 ft 437 kts 275°
2026-04-29 11:59 -1.31584 -87.35407 33891 ft 437 kts 275°
2026-04-29 11:59 -1.30784 -87.41412 33900 ft 436 kts 275°
2026-04-29 12:00 -1.29982 -87.47373 33902 ft 435 kts 275°
2026-04-29 12:00 -1.29195 -87.53298 33897 ft 435 kts 275°
2026-04-29 12:01 -1.28389 -87.59280 33896 ft 434 kts 275°
2026-04-29 12:01 -1.27580 -87.65265 33894 ft 434 kts 275°
2026-04-29 12:02 -1.26775 -87.71241 33890 ft 434 kts 275°
2026-04-29 12:02 -1.25976 -87.77215 33899 ft 433 kts 275°
2026-04-29 12:03 -1.25176 -87.83171 33901 ft 432 kts 275°
2026-04-29 12:03 -1.24364 -87.89120 33898 ft 432 kts 276°
2026-04-29 12:04 -1.23293 -87.95031 33893 ft 432 kts 279°
2026-04-29 12:04 -1.22059 -88.00914 33890 ft 432 kts 279°
2026-04-29 12:05 -1.20865 -88.06773 33548 ft 433 kts 278°
2026-04-29 12:05 -1.20288 -88.09730 33295 ft 434 kts 278°
2026-04-29 12:05 -1.19716 -88.12694 33041 ft 435 kts 278°
2026-04-29 12:06 -1.19142 -88.15663 32787 ft 434 kts 278°
2026-04-29 12:06 -1.18569 -88.18622 32539 ft 433 kts 278°
2026-04-29 12:06 -1.17997 -88.21561 32133 ft 429 kts 277°
2026-04-29 12:06 -1.17428 -88.24479 31640 ft 427 kts 277°
2026-04-29 12:07 -1.16860 -88.27388 31152 ft 425 kts 277°
2026-04-29 12:07 -1.16294 -88.30282 30663 ft 424 kts 277°
2026-04-29 12:07 -1.15727 -88.33170 30176 ft 423 kts 276°
2026-04-29 12:07 -1.15164 -88.36050 29653 ft 422 kts 276°
2026-04-29 12:08 -1.14606 -88.38922 29164 ft 419 kts 277°
2026-04-29 12:08 -1.14052 -88.41770 28694 ft 417 kts 277°
2026-04-29 12:08 -1.13500 -88.44607 28213 ft 414 kts 277°
2026-04-29 12:08 -1.12952 -88.47421 27770 ft 412 kts 277°
2026-04-29 12:09 -1.12406 -88.50228 27318 ft 410 kts 278°
2026-04-29 12:09 -1.11865 -88.53019 26877 ft 408 kts 278°
2026-04-29 12:09 -1.11326 -88.55795 26448 ft 406 kts 278°
2026-04-29 12:09 -1.10787 -88.58554 26018 ft 405 kts 279°
2026-04-29 12:10 -1.10247 -88.61313 25598 ft 403 kts 279°
2026-04-29 12:10 -1.09710 -88.64056 25177 ft 401 kts 279°
2026-04-29 12:10 -1.09175 -88.66786 24754 ft 400 kts 279°
2026-04-29 12:10 -1.08642 -88.69507 24334 ft 398 kts 279°
2026-04-29 12:11 -1.08113 -88.72219 23907 ft 397 kts 279°
2026-04-29 12:11 -1.07587 -88.74925 23468 ft 396 kts 281°
2026-04-29 12:11 -1.07062 -88.77620 22970 ft 394 kts 281°
2026-04-29 12:11 -1.06542 -88.80297 22524 ft 391 kts 281°
2026-04-29 12:12 -1.06034 -88.82916 22086 ft 387 kts 281°
2026-04-29 12:12 -1.05525 -88.85547 21628 ft 384 kts 281°
2026-04-29 12:12 -1.05016 -88.88159 21174 ft 382 kts 281°
2026-04-29 12:12 -1.04508 -88.90757 20714 ft 380 kts 281°
2026-04-29 12:13 -1.04003 -88.93337 20258 ft 378 kts 281°
2026-04-29 12:13 -1.03497 -88.95907 19796 ft 376 kts 282°
2026-04-29 12:13 -1.02995 -88.98466 19336 ft 375 kts 281°
2026-04-29 12:13 -1.02497 -89.01012 18878 ft 373 kts 282°
2026-04-29 12:14 -1.01999 -89.03558 18414 ft 372 kts 282°
2026-04-29 12:14 -1.01509 -89.06075 17925 ft 371 kts 282°
2026-04-29 12:14 -1.01017 -89.08598 17448 ft 368 kts 282°
2026-04-29 12:14 -1.00529 -89.11107 16991 ft 365 kts 282°
2026-04-29 12:15 -1.00045 -89.13595 16534 ft 363 kts 282°
2026-04-29 12:15 -0.99565 -89.16059 16085 ft 361 kts 282°
2026-04-29 12:15 -0.99088 -89.18513 15642 ft 358 kts 282°
2026-04-29 12:15 -0.98615 -89.20930 15191 ft 356 kts 282°
2026-04-29 12:16 -0.98141 -89.23351 14745 ft 354 kts 282°
2026-04-29 12:16 -0.97668 -89.25760 14302 ft 352 kts 282°
2026-04-29 12:16 -0.97199 -89.28157 13863 ft 351 kts 282°
2026-04-29 12:16 -0.96734 -89.30545 13391 ft 349 kts 282°
2026-04-29 12:17 -0.96272 -89.32921 12943 ft 347 kts 282°
2026-04-29 12:17 -0.95813 -89.35272 12509 ft 344 kts 282°
2026-04-29 12:17 -0.95358 -89.37607 12080 ft 341 kts 282°
2026-04-29 12:17 -0.94906 -89.39924 11655 ft 339 kts 282°
2026-04-29 12:18 -0.94455 -89.42227 11233 ft 336 kts 282°
2026-04-29 12:18 -0.94007 -89.44513 10814 ft 335 kts 282°
2026-04-29 12:18 -0.93559 -89.46790 10394 ft 333 kts 282°
2026-04-29 12:18 -0.93116 -89.49053 10040 ft 330 kts 281°
2026-04-29 12:19 -0.92685 -89.51261 9917 ft 318 kts 282°
2026-04-29 12:19 -0.92267 -89.53411 9656 ft 313 kts 281°
2026-04-29 12:19 -0.91853 -89.55542 9362 ft 309 kts 282°
2026-04-29 12:19 -0.91450 -89.57612 9232 ft 299 kts 281°
2026-04-29 12:20 -0.91059 -89.59617 9105 ft 289 kts 281°
2026-04-29 12:20 -0.90678 -89.61560 8980 ft 281 kts 282°
2026-04-29 12:20 -0.90097 -89.63380 8854 ft 275 kts 298°
2026-04-29 12:20 -0.88957 -89.64883 8731 ft 271 kts 322°
2026-04-29 12:21 -0.87345 -89.65787 8606 ft 265 kts 347°
2026-04-29 12:21 -0.85542 -89.65952 8479 ft 259 kts 11°
2026-04-29 12:21 -0.83854 -89.65407 8365 ft 254 kts 33°
2026-04-29 12:21 -0.82524 -89.64279 8239 ft 251 kts 54°
2026-04-29 12:22 -0.81718 -89.62753 8118 ft 248 kts 75°
2026-04-29 12:22 -0.81527 -89.61053 8003 ft 247 kts 92°
2026-04-29 12:22 -0.81644 -89.59336 7898 ft 248 kts 96°
2026-04-29 12:22 -0.81832 -89.57626 7884 ft 248 kts 97°
2026-04-29 12:23 -0.82040 -89.55912 7888 ft 248 kts 97°
2026-04-29 12:23 -0.82246 -89.54206 7878 ft 247 kts 96°
2026-04-29 12:23 -0.82502 -89.52510 7885 ft 248 kts 105°
2026-04-29 12:23 -0.83243 -89.50960 7889 ft 250 kts 125°
2026-04-29 12:24 -0.84510 -89.49770 7888 ft 253 kts 146°
2026-04-29 12:24 -0.86153 -89.49141 7890 ft 256 kts 168°
2026-04-29 12:24 -0.87936 -89.49188 7889 ft 260 kts 191°
2026-04-29 12:24 -0.89607 -89.49947 7889 ft 278 kts 216°
2026-04-29 12:25 -0.90891 -89.51453 7883 ft 294 kts 243°
2026-04-29 12:25 -0.91329 -89.53442 7882 ft 297 kts 273°
2026-04-29 12:25 -0.89688 -89.57166 7888 ft 300 kts 303°
2026-04-29 12:26 -0.88597 -89.58944 7882 ft 300 kts 303°
2026-04-29 12:26 -0.87512 -89.60723 7885 ft 300 kts 303°
2026-04-29 12:26 -0.86419 -89.62526 7889 ft 300 kts 302°
2026-04-29 12:26 -0.85355 -89.64285 7885 ft 300 kts 302°
2026-04-29 12:27 -0.84279 -89.66064 7886 ft 300 kts 302°
2026-04-29 12:27 -0.83190 -89.67863 7891 ft 300 kts 302°
2026-04-29 12:27 -0.82120 -89.69632 7885 ft 300 kts 302°
2026-04-29 12:27 -0.81041 -89.71417 7883 ft 300 kts 302°
2026-04-29 12:28 -0.79961 -89.73201 7883 ft 300 kts 302°
2026-04-29 12:28 -0.78879 -89.74983 7886 ft 300 kts 302°
2026-04-29 12:28 -0.77795 -89.76765 7891 ft 299 kts 302°
2026-04-29 12:28 -0.76717 -89.78537 7891 ft 297 kts 302°
2026-04-29 12:29 -0.75654 -89.80288 7885 ft 297 kts 302°
2026-04-29 12:29 -0.74600 -89.82030 7891 ft 297 kts 302°
2026-04-29 12:29 -0.73533 -89.83794 7888 ft 297 kts 302°
2026-04-29 12:29 -0.72464 -89.85561 7891 ft 298 kts 302°
2026-04-29 12:30 -0.71392 -89.87336 7886 ft 298 kts 302°
2026-04-29 12:30 -0.70316 -89.89108 7888 ft 298 kts 302°
2026-04-29 12:30 -0.69242 -89.90879 7892 ft 297 kts 302°
2026-04-29 12:30 -0.68173 -89.92642 7886 ft 296 kts 302°
2026-04-29 12:31 -0.67106 -89.94398 7889 ft 296 kts 302°
2026-04-29 12:31 -0.66036 -89.96157 7881 ft 296 kts 302°
2026-04-29 12:31 -0.64969 -89.97910 7886 ft 297 kts 302°
2026-04-29 12:31 -0.63883 -89.99698 7887 ft 297 kts 302°
2026-04-29 12:32 -0.62828 -90.01439 7886 ft 297 kts 302°
2026-04-29 12:32 -0.61760 -90.03201 7889 ft 296 kts 302°
2026-04-29 12:32 -0.60690 -90.05003 7883 ft 299 kts 300°
2026-04-29 12:32 -0.59731 -90.06820 7885 ft 300 kts 298°
2026-04-29 12:33 -0.58805 -90.08710 7883 ft 299 kts 296°
2026-04-29 12:33 -0.57915 -90.10577 7888 ft 297 kts 296°
2026-04-29 12:33 -0.57022 -90.12448 7889 ft 297 kts 296°
2026-04-29 12:33 -0.56147 -90.14266 7880 ft 283 kts 296°
2026-04-29 12:34 -0.55303 -90.16003 7880 ft 272 kts 297°
2026-04-29 12:34 -0.54470 -90.17701 7541 ft 274 kts 297°
2026-04-29 12:34 -0.53622 -90.19418 7167 ft 277 kts 297°
2026-04-29 12:34 -0.52705 -90.21087 6796 ft 279 kts 302°
2026-04-29 12:35 -0.51692 -90.22766 6417 ft 281 kts 302°
2026-04-29 12:35 -0.51017 -90.23873 6156 ft 283 kts 302°
2026-04-29 12:35 -0.49647 -90.26113 5622 ft 279 kts 302°
2026-04-29 12:35 -0.48651 -90.27744 5241 ft 271 kts 302°
2026-04-29 12:36 -0.48005 -90.28801 5012 ft 267 kts 301°
2026-04-29 12:36 -0.47046 -90.30372 4666 ft 261 kts 301°
2026-04-29 12:36 -0.46116 -90.31895 4294 ft 252 kts 301°
2026-04-29 12:36 -0.45225 -90.33354 4015 ft 240 kts 301°
2026-04-29 12:37 -0.44390 -90.34724 3730 ft 221 kts 300°
2026-04-29 12:37 -0.43622 -90.35975 3457 ft 203 kts 302°
2026-04-29 12:37 -0.42679 -90.36908 3280 ft 178 kts 326°
2026-04-29 12:37 -0.41622 -90.37363 3102 ft 158 kts 348°
2026-04-29 12:38 -0.40558 -90.37445 2964 ft 151 kts
2026-04-29 12:38 -0.39555 -90.37203 2829 ft 147 kts 27°
2026-04-29 12:38 -0.38696 -90.36682 2698 ft 143 kts 45°
2026-04-29 12:38 -0.38047 -90.35952 2571 ft 140 kts 63°
2026-04-29 12:39 -0.37642 -90.35083 2433 ft 137 kts 79°
2026-04-29 12:39 -0.37501 -90.34164 2312 ft 132 kts 95°
2026-04-29 12:39 -0.37615 -90.33270 2187 ft 128 kts 111°
2026-04-29 12:39 -0.37953 -90.32452 2063 ft 127 kts 124°
2026-04-29 12:40 -0.38492 -90.31733 1884 ft 132 kts 136°
2026-04-29 12:40 -0.39180 -90.31126 1734 ft 132 kts 143°
2026-04-29 12:40 -0.39913 -90.30570 1537 ft 133 kts 145°
2026-04-29 12:40 -0.40658 -90.30027 1343 ft 132 kts 146°
2026-04-29 12:41 -0.41412 -90.29493 1121 ft 134 kts 146°
2026-04-29 12:41 -0.42164 -90.28942 913 ft 134 kts 145°
2026-04-29 12:41 -0.42909 -90.28400 724 ft 134 kts 145°
2026-04-29 12:41 -0.43668 -90.27841 462 ft 138 kts 144°
2026-04-29 12:42 -0.44448 -90.27262 212 ft 141 kts 144°
2026-04-29 12:42 -0.45170 -90.26741 177 ft 102 kts 144°
2026-04-29 12:42 -0.45501 -90.26513 191 ft 18 kts 156°
2026-04-29 12:42 -0.45504 -90.26487 189 ft 9 kts 340°
2026-04-29 12:43 -0.45390 -90.26577 180 ft 27 kts 323°
2026-04-29 12:43 -0.45227 -90.26696 178 ft 30 kts 324°
2026-04-29 12:43 -0.45050 -90.26824 174 ft 33 kts 324°
2026-04-29 12:43 -0.44859 -90.26962 169 ft 35 kts 324°
2026-04-29 12:44 -0.44649 -90.27114 160 ft 35 kts 324°
2026-04-29 12:44 -0.44499 -90.27184 152 ft 16 kts 24°
2026-04-29 12:44 -0.44488 -90.27105 154 ft 8 kts 139°
2026-04-29 12:44 -0.44528 -90.27076 157 ft 6 kts 144°
2026-04-29 12:45 -0.44551 -90.27060 158 ft 0 kts 146°
2026-04-29 12:45 -0.44557 -90.27056 158 ft 0 kts 146°